Broomfield, CO

1:59 PM MDT on June 23, 2017 (GMT -0600)
Jeffco

Weather History for KBJC - July, 2014

Change the Weather History Date:

Friday, July 11, 2014

  Actual Average Record
Temperature  
Mean Temperature 75 °F -  
Max Temperature 86 °F 87 °F 98 °F (2008)
Min Temperature 64 °F 61 °F 19 °F (1986)
Cooling Degree Days 10    
Growing Degree Days 25 (Base 50)    
Moisture  
Dew Point 57 °F    
Average Humidity 63    
Maximum Humidity 88    
Minimum Humidity 33    
Precipitation  
Precipitation 0.00 in - - ()
Sea Level Pressure  
Sea Level Pressure 30.17 in    
Wind  
Wind Speed 6 mph (NNE)    
Max Wind Speed 15 mph    
Max Gust Speed 28 mph    
Visibility 12 miles    
Events Rain , Thunderstorm    
Averages and records for this station are not official NWS values.
T = Trace of Precipitation, MM = Missing Value Source: NWS Daily Summary

Daily Weather History Graph

Daily Weather History Graph

Search for Another Location

Airport or City:

Trip Planner

Search our weather history database for the weather conditions in past years. The results will help you decide how hot, cold, wet, or windy it might be!

Date:

Astronomy

Jul. 11, 2014 Rise Set
Actual Time 5:41 AM MDT 8:30 PM MDT
Civil Twilight 5:09 AM MDT 9:02 PM MDT
Nautical Twilight 4:29 AM MDT 9:42 PM MDT
Astronomical Twilight 3:43 AM MDT 10:28 PM MDT
Moon 7:42 PM MDT (7/11) 4:56 AM MDT (7/11)
Length of Visible Light 15h 52m
Length of Day
14h 48m
Waxing Gibbous, 99% of the Moon is Illuminated
Jul 11
Waxing Gibbous
Jul 12
Full
Jul 18
Last Quarter
Jul 26
New
Aug 3
First Quarter

Hourly Weather History & Observations

Time (MDT) Temp. Heat Index Dew Point Humidity Pressure Visibility Wind Dir Wind Speed Gust Speed Precip Events Conditions
12:15 AM 71.6 °F - 53.6 °F 53% 30.13 in 10.0 mi North 12.7 mph - N/A   Scattered Clouds
12:35 AM 71.6 °F - 53.6 °F 53% 30.13 in 10.0 mi North 8.1 mph - N/A Rain Light Rain
12:55 AM 71.6 °F - 53.6 °F 53% 30.13 in 10.0 mi NNW 4.6 mph - N/A   Scattered Clouds
1:14 AM 71.6 °F - 53.6 °F 53% 30.14 in 10.0 mi NNW 4.6 mph - N/A   Clear
1:54 AM 69.8 °F - 53.6 °F 56% 30.15 in 10.0 mi NE 4.6 mph - N/A   Clear
2:14 AM 69.8 °F - 53.6 °F 56% 30.15 in 10.0 mi East 6.9 mph - N/A   Clear
2:34 AM 68.0 °F - 53.6 °F 60% 30.14 in 10.0 mi Calm Calm - N/A   Clear
2:55 AM 68.0 °F - 53.6 °F 60% 30.14 in 10.0 mi Calm Calm - N/A   Clear
3:15 AM 64.4 °F - 55.4 °F 73% 30.15 in 10.0 mi Calm Calm - N/A   Clear
3:35 AM 64.4 °F - 55.4 °F 73% 30.15 in 10.0 mi Calm Calm - N/A   Clear
3:55 AM 68.0 °F - 55.4 °F 64% 30.15 in 10.0 mi Calm Calm - N/A   Clear
4:15 AM 66.2 °F - 55.4 °F 68% 30.15 in 10.0 mi Calm Calm - N/A   Clear
4:35 AM 64.4 °F - 55.4 °F 73% 30.15 in 10.0 mi Calm Calm - N/A   Clear
4:55 AM 64.4 °F - 55.4 °F 73% 30.16 in 10.0 mi Calm Calm - N/A   Clear
5:15 AM 66.2 °F - 55.4 °F 68% 30.17 in 10.0 mi Calm Calm - N/A   Clear
5:34 AM 66.2 °F - 55.4 °F 68% 30.16 in 10.0 mi Calm Calm - N/A   Clear
5:55 AM 66.2 °F - 55.4 °F 68% 30.15 in 10.0 mi Calm Calm - N/A   Clear
6:53 AM 66.2 °F - 55.4 °F 68% 30.17 in 40.0 mi Calm Calm - N/A   Mostly Cloudy
8:45 AM 73.4 °F - 55.4 °F 53% 30.17 in 50.0 mi Variable 3.5 mph - N/A   Mostly Cloudy
9:50 AM 77.0 °F - 55.4 °F 47% 30.17 in 50.0 mi East 8.1 mph - N/A   Mostly Cloudy
10:53 AM 82.4 °F 81.7 °F 55.4 °F 39% 30.17 in 50.0 mi Variable 5.8 mph - N/A   Mostly Cloudy
11:47 AM 82.4 °F 81.4 °F 53.6 °F 37% 30.17 in 50.0 mi East 4.6 mph - N/A   Mostly Cloudy
12:45 PM 86.0 °F 84.2 °F 53.6 °F 33% 30.17 in 50.0 mi East 6.9 mph - N/A   Mostly Cloudy
2:45 PM 86.0 °F 88.2 °F 66.2 °F 51% 30.15 in 30.0 mi North 9.2 mph - N/A   Mostly Cloudy
4:45 PM 75.2 °F - 55.4 °F 50% 30.19 in 15.0 mi SSW 15.0 mph 26.5 mph N/A Thunderstorm Overcast
4:55 PM 68.0 °F - 60.8 °F 78% 30.20 in 15.0 mi ESE 13.8 mph 27.6 mph N/A Rain , Thunderstorm Light Thunderstorms and Rain
5:45 PM 66.2 °F - 62.6 °F 88% 30.20 in 15.0 mi NNE 6.9 mph - N/A Thunderstorm Mostly Cloudy
6:50 PM 71.6 °F - 62.6 °F 73% 30.20 in 20.0 mi South 4.6 mph - N/A   Mostly Cloudy
8:45 PM 71.6 °F - 59.0 °F 64% 30.20 in 15.0 mi ENE 3.5 mph - N/A   Mostly Cloudy
9:45 PM 68.0 °F - 60.8 °F 78% 30.21 in 20.0 mi North 6.9 mph - N/A   Mostly Cloudy
11:15 PM 68.0 °F - 60.8 °F 78% 30.28 in 10.0 mi NNW 9.2 mph - N/A   Scattered Clouds
11:35 PM 68.0 °F - 60.8 °F 78% 30.27 in 10.0 mi NW 6.9 mph - N/A   Scattered Clouds
11:55 PM 66.2 °F - 60.8 °F 83% 30.28 in 10.0 mi NW 9.2 mph - N/A   Clear